Location: Unspecified
(51.0950°N, 12.9690°E)
Time: 22:51:23
(UTC+00:00)

Cosmos 2219 Rocket - Pass Details

Date: 28 October 2021
Orbit: 826 x 848 km, 71.0° (Epoch: 01 December)

Event Time Altitude Azimuth Distance (km) Brightness Sun altitude
Rises 18:49:36 0° 220° (SW) 3,359 5.6 -28.7°
Reaches altitude 10° 18:52:03 10° 224° (SW) 2,432 4.9 -29.1°
Maximum altitude 18:57:34 61° 305° (NW) 947 2.6 -29.9°
Enters shadow 18:58:43 50° 352° (N) 1,058 2.7 -30.1°
